Printer-friendly version

IAU Minor Planet Center

Minor Planet Center

MPEC 2005-R63 : 2005 RO33

The following Minor Planet Electronic Circular may be linked-to from your own Web pages, but must not otherwise be redistributed electronically.


Read MPEC 2005-R62 Read MPEC 2005-S01


M.P.E.C. 2005-R63                                Issued 2005 Sept. 15, 16:12 UT

     The Minor Planet Electronic Circulars contain information on unusual
         minor planets and routine data on comets.  They are published
   on behalf of Commission 20 of the International Astronomical Union by the
          Minor Planet Center, Smithsonian Astrophysical Observatory,
                          Cambridge, MA 02138, U.S.A.

                  Supported in part by the Brinson Foundation
             Prepared using the Tamkin Foundation Computer Network

                              MPC@CFA.HARVARD.EDU
          URL http://cfa-www.harvard.edu/iau/mpc.html  ISSN 1523-6714

                                   2005 RO33

Observations:
     K05R33O* C2005 09 13.43568 04 03 35.13 -06 19 50.3          19.7 V ER063703
     K05R33O  C2005 09 13.44544 04 03 36.25 -06 19 48.2          20.4 V ER063703
     K05R33O  C2005 09 13.45513 04 03 37.44 -06 19 48.8          20.1 V ER063703
     K05R33O  C2005 09 13.46492 04 03 38.80 -06 19 48.7          20.1 V ER063703
     K05R33O  C2005 09 13.49547 04 03 42.34 -06 19 49.1          19.4 V ER063703
     K05R33O  C2005 09 13.49634 04 03 42.46 -06 19 48.7          19.6 V ER063703
     K05R33O  C2005 09 13.49722 04 03 42.62 -06 19 49.6          19.6 V ER063703
     K05R33O  C2005 09 13.49809 04 03 42.67 -06 19 48.3          19.4 V ER063703
     K05R33O  C2005 09 14.35142 04 05 35.01 -06 19 42.0          19.9 R ER063854
     K05R33O  C2005 09 14.36292 04 05 36.67 -06 19 45.2          20.0 R ER063854
     K05R33O  C2005 09 14.43219 04 05 44.74 -06 19 42.4          19.9 V ER063703
     K05R33O  C2005 09 14.44012 04 05 45.74 -06 19 43.2          19.8 V ER063703
     K05R33O  C2005 09 14.44793 04 05 46.70 -06 19 42.6          20.0 V ER063703
     K05R33O  C2005 09 14.45587 04 05 47.61 -06 19 42.7          19.9 V ER063703
     K05R33O 5C2005 09 15.41655 04 07 48.63 -06 19 35.1          20.0 R ER063673
     K05R33O 5C2005 09 15.42095 04 07 49.05 -06 19 35.3                 ER063673
     K05R33O 5C2005 09 15.42743 04 07 49.83 -06 19 35.2                 ER063673
     K05R33O 5C2005 09 15.43449 04 07 50.61 -06 19 35.1                 ER063673
     K05R33O  C2005 09 15.46794 04 07 54.26 -06 19 34.3          19.9 V ER063703
     K05R33O  C2005 09 15.47340 04 07 54.83 -06 19 35.3          20.4 V ER063703
     K05R33O  C2005 09 15.47890 04 07 55.56 -06 19 34.2                 ER063703
     K05R33O  C2005 09 15.48519 04 07 56.13 -06 19 35.2          20.4 V ER063703

Observer details:
673 Table Mountain Observatory, Wrightwood.  Observer J. Young.  0.6-m f/16
    Cassegrain + CCD.
703 Catalina Sky Survey.  Observer R. Hill.  Measurers E. C. Beshore,
    C. M. Casey, E. J. Christensen, G. J. Garradd, A. D. Grauer, R. E. Hill,
    S. M. Larson, R. H. McNaught.  0.68-m Schmidt + CCD.
854 Sabino Canyon Observatory, Tucson.  Observer J. E. McGaha.  0.36-m f/10.0
    Schmidt-Cassegrain + CCD.

Orbital elements:
2005 RO33
Epoch 2005 Sept. 7.0 TT = JDT 2453620.5                 MPC
M   4.52429              (2000.0)            P               Q
n   0.40787834     Peri.  235.01589     +0.96643974     +0.23072086
a   1.8007315      Node   111.41222     -0.17778235     +0.91811796
e   0.3715772      Incl.    6.96973     -0.18543909     +0.32222244
P   2.42           H   20.3           G   0.15
From 22 observations 2005 Sept. 13-15.

Ephemeris:
2005 RO33                a,e,i = 1.80, 0.37, 7                   q = 1.1316
Date    TT    R. A. (2000) Decl.     Delta      r     Elong.  Phase     V
2005 09 07    03 47.71   -06 20.0    0.291    1.137   109.2    56.8    20.0
2005 09 17    04 10.94   -06 19.0    0.298    1.150   112.0    54.1    20.0
2005 09 27    04 26.26   -06 15.0    0.306    1.172   116.6    49.9    19.9
2005 10 07    04 33.59   -06 01.3    0.313    1.200   123.2    44.2    19.9
2005 10 17    04 33.20   -05 27.1    0.323    1.234   131.5    37.2    19.8
2005 10 27    04 26.05   -04 23.0    0.337    1.274   141.1    29.3    19.7
2005 11 06    04 13.98   -02 42.9    0.359    1.317   151.1    21.3    19.7
2005 11 16    04 00.06   -00 28.5    0.393    1.363   159.0    15.1    19.8
2005 11 26    03 47.40   +02 07.9    0.442    1.412   160.6    13.4    20.1
2005 12 06    03 38.26   +04 52.4    0.508    1.462   155.3    16.4    20.5
2005 12 16    03 33.74   +07 33.6    0.589    1.513   147.1    20.7    21.1
2005 12 26    03 33.79   +10 04.7    0.685    1.564   138.6    24.6    21.6

Kyle E. Smalley              (C) Copyright 2005 MPC           M.P.E.C. 2005-R63

Read MPEC 2005-R62 Read MPEC 2005-S01


Our Web policy. Index to the CBAT/MPC/ICQ pages.


Valid HTML 4.01!